Погода в Пезе

Швейцария     46°59′11″N   6°53′15″E
темп.,
°C
ветер,
м/с
пор.,
м/с
влажн.,
%
обл.,
%
осадки,
мм/ч
давл.,
гПа
погр.,
м
17 августа, ср
ср1723:00+19св33579 0.0 101072
02:00+17юз116578 0.0 101151
05:00+17с117193 0.1 101235
08:00+16св128530 0.6 1013100
11:00+23всв125592 0.2 1012500
14:00+27в1238100 0.2 10101697
17:00+22в6763100 0.2 1011744
20:00+18всв2486100 0.7 1011225
18 августа, чт
чт1823:00+16юз3596100 7.0 1015321
02:00+15юз4794100 10.9 1015406
05:00+14зюз129252 1.9 1014115
08:00+15св1191100 1.9 1014143
11:00+19ююв017550 0.5 1014580
14:00+22ссв015555 1.2 10131470
17:00+20св2267100 0.8 1012637
20:00+17с1284100 3.0 101374
19 августа, пт
пт1923:00+15с2292100 1.1 101459
02:00+15с2292100 1.9 101484
05:00+15зсз1193100 1.4 101370
08:00+15ссз0191100 1.4 1015116
11:00+20сз026914 0.4 1016800
14:00+24ссв134910 1.1 10151526
17:00+22сз235697 0.1 1015458
20:00+19сз347645 0.7 1017154
20 августа, сб
сб2023:00+17ссз127897 0.1 101856
02:00+17сз217681 0.1 101959
05:00+15ссз22786 0.0 101947
08:00+16сз11742 0.0 102076
11:00+22ю115413 0.1 1019896
14:00+22сз326226 1.2 10181083
17:00+23сз32623 1.0 10181005
20:00+19ссз22747 1.9 1019141
21 августа, вс
вс2123:00+16ссз228423 0.1 102055
02:00+15ссв1187100 0.1 101950
05:00+14ссв1188100 0.0 101843
08:00+16ссв1185100 0.0 101988
11:00+21вюв1159100 0.0 1018661
14:00+25юв114498 0.0 10161836
17:00+23с345291 0.0 1016593
20:00+20с2358100 0.0 1016195